{"data":{"norad_id":57200,"epoch":"2026-09-21T22:01:01.335648Z","epoch_age_seconds":82642,"freshness":"FRESH","line1":"1 57200U 23091AL  26264.91737657  .00029868  00000+0  50924-3 0  9999","line2":"2 57200  97.4969 342.9392 0004767  70.1733 290.0032 15.51304111179978","mean_motion":15.51304111,"eccentricity":0.0004767,"inclination_deg":97.4969,"raan_deg":342.9392,"arg_perigee_deg":70.1733,"mean_anomaly_deg":290.0032,"bstar":0.00050924,"rev_number":17997,"period_min":92.825126278544,"perigee_km":409.68015103365,"apogee_km":416.15474234312,"semimajor_km":6791.0544466884,"source":"CELESTRAK","updated_at":"2026-09-22T09:00:26.081628Z"}}